Погода в Егиндыбулаке

Казахстан     49°47′10″N   76°23′08″E
темп.,
°C
ветер,
м/с
пор.,
м/с
влажн.,
%
обл.,
%
осадки,
мм/ч
давл.,
гПа
погр.,
м
2 марта, вт
вт200:00−2зюз61493100 0.3 1016784
03:00−5зюз41091100 0.1 1017308
06:00−4з3895100 0.1 1017362
09:00−5зюз2295100 0.0 101755
12:00−2з3688100 0.1 1016629
15:00−2зсз3595100 0.8 1015474
18:00−3зсз3496100 1.8 1015192
21:00−8зюз2397100 0.3 101737
3 марта, ср
ср300:00−9зюз61193100 0.6 1020457
03:00−14зюз5129497 0.1 1022414
06:00−18зюз599598 0.1 1024210
09:00−17зюз5129495 0.0 1026367
12:00−13з698786 0.0 1026497
15:00−11зюз5118348 0.0 1025561
18:00−12зюз448526 0.0 102676
21:00−15зюз46810 0.0 102786
4 марта, чт
чт400:00−15юз468118 0.0 102790
03:00−14юз448629 0.0 102654
06:00−13ююз348431 0.0 102631
09:00−11ююз468229 0.0 102589
12:00−4ююз5117544 0.0 1024596
15:00−3ююз4107456 0.0 1022619
18:00−8ю467946 0.0 102281
21:00−8ю6137499 0.0 1020284
5 марта, пт
пт500:00−9ююз598594 0.0 1019176
03:00−7ююз3796100 0.2 1016236
06:00−6зюз2796100 1.6 1015306
09:00−6зсз71394100 0.4 1020650
12:00−8з9138996 0.4 1026714
15:00−7зюз7128265 0.0 1029745
18:00−9юз5108133 0.0 1030246
21:00−11юз59790 0.0 1031175
6 марта, сб
сб600:00−12юз597317 0.0 1031165
03:00−12юз59690 0.0 1029136
06:00−13юз456523 0.0 102862
09:00−11юз466995 0.0 1028111
12:00−6юз486890 0.0 1026335
15:00−5зюз597257 0.0 1024400
18:00−8зюз347931 0.0 102450
21:00−11юз22736 0.0 102521